KOR7815 ZBAA-ZKPY

Flight info

Callsign KOR7815
Flight time 1h 35m
Altitude 37100
Route DOTRA2G DOTRA B334 KAKAT W31 CHG A575 BIDIB A345 GASAN GAS11A
Aircraft B38M/M-SDE1FGHILORVWXY/HB1

Departure

Time 2026-04-23 14:42
Airport Beijing Capital International Airport (ZBAA)

Arrival

Time 2026-04-23 16:17
Airport Pyongyang Sunan International Airport (ZKPY)
Time Latitude Longitude Altitude Speed Heading
2026-04-23 14:09 40.08015 116.60287 114 ft 0 kts 25°
2026-04-23 14:33 40.08007 116.60282 115 ft 3 kts 24°
2026-04-23 14:33 40.07989 116.60272 114 ft 3 kts 17°
2026-04-23 14:33 40.07969 116.60266 114 ft 3 kts
2026-04-23 14:34 40.07950 116.60267 116 ft 3 kts 341°
2026-04-23 14:34 40.07937 116.60277 113 ft 2 kts 298°
2026-04-23 14:34 40.07935 116.60281 113 ft 2 kts 292°
2026-04-23 14:36 40.07936 116.60278 113 ft 1 kts 292°
2026-04-23 14:36 40.07942 116.60260 116 ft 3 kts 292°
2026-04-23 14:37 40.07953 116.60224 115 ft 5 kts 292°
2026-04-23 14:37 40.07970 116.60173 118 ft 7 kts 293°
2026-04-23 14:37 40.07998 116.60110 117 ft 9 kts 316°
2026-04-23 14:37 40.08059 116.60083 117 ft 10 kts 353°
2026-04-23 14:38 40.08136 116.60071 116 ft 12 kts 353°
2026-04-23 14:38 40.08198 116.60018 116 ft 11 kts 285°
2026-04-23 14:38 40.08193 116.59917 116 ft 12 kts 262°
2026-04-23 14:38 40.08228 116.59830 119 ft 12 kts 343°
2026-04-23 14:39 40.08315 116.59814 118 ft 13 kts 354°
2026-04-23 14:39 40.08411 116.59798 118 ft 15 kts 352°
2026-04-23 14:39 40.08519 116.59780 118 ft 16 kts 353°
2026-04-23 14:39 40.08636 116.59764 118 ft 18 kts 354°
2026-04-23 14:40 40.08765 116.59743 117 ft 19 kts 352°
2026-04-23 14:40 40.08886 116.59683 119 ft 20 kts 291°
2026-04-23 14:40 40.08865 116.59511 119 ft 13 kts 227°
2026-04-23 14:40 40.08791 116.59505 120 ft 10 kts 171°
2026-04-23 14:41 40.08714 116.59519 118 ft 12 kts 174°
2026-04-23 14:41 40.08498 116.59551 118 ft 70 kts 173°
2026-04-23 14:41 40.07744 116.59669 114 ft 148 kts 173°
2026-04-23 14:41 40.06542 116.59834 474 ft 186 kts 174°
2026-04-23 14:42 40.05260 116.60035 1635 ft 179 kts 173°
2026-04-23 14:42 40.03988 116.60244 2527 ft 194 kts 173°
2026-04-23 14:42 40.02573 116.60472 3200 ft 216 kts 173°
2026-04-23 14:42 40.01007 116.60721 3885 ft 237 kts 173°
2026-04-23 14:43 39.99304 116.60989 4783 ft 246 kts 173°
2026-04-23 14:43 39.97592 116.61258 5935 ft 255 kts 173°
2026-04-23 14:43 39.95770 116.61543 6753 ft 272 kts 173°
2026-04-23 14:43 39.93843 116.61844 7578 ft 289 kts 173°
2026-04-23 14:44 39.91749 116.62170 7745 ft 329 kts 173°
2026-04-23 14:44 39.89337 116.62583 7764 ft 369 kts 167°
2026-04-23 14:44 39.86960 116.63941 8204 ft 369 kts 142°
2026-04-23 14:44 39.85390 116.66325 8821 ft 334 kts 119°
2026-04-23 14:45 39.84815 116.68143 8801 ft 325 kts 104°
2026-04-23 14:45 39.84773 116.71937 8691 ft 308 kts 82°
2026-04-23 14:45 39.85055 116.74659 8568 ft 298 kts 82°
2026-04-23 14:45 39.85333 116.77288 8457 ft 288 kts 82°
2026-04-23 14:46 39.85610 116.79839 8252 ft 283 kts 82°
2026-04-23 14:46 39.85884 116.82337 8006 ft 281 kts 82°
2026-04-23 14:46 39.86162 116.84854 7976 ft 282 kts 82°
2026-04-23 14:46 39.86443 116.87391 7977 ft 283 kts 82°
2026-04-23 14:47 39.86723 116.89925 7966 ft 283 kts 82°
2026-04-23 14:47 39.87003 116.92459 7978 ft 283 kts 82°
2026-04-23 14:47 39.87283 116.94996 7976 ft 284 kts 82°
2026-04-23 14:47 39.87565 116.97555 8545 ft 285 kts 82°
2026-04-23 14:48 39.87844 117.00101 9616 ft 286 kts 82°
2026-04-23 14:48 39.88125 117.02660 10463 ft 294 kts 82°
2026-04-23 14:48 39.88520 117.05349 10978 ft 313 kts 70°
2026-04-23 14:48 39.89655 117.07841 11420 ft 332 kts 46°
2026-04-23 14:49 39.91581 117.09599 11867 ft 348 kts 21°
2026-04-23 14:49 39.93975 117.10200 12438 ft 358 kts 358°
2026-04-23 14:49 39.95624 117.09935 12854 ft 363 kts 349°
2026-04-23 14:49 39.98135 117.09446 13644 ft 367 kts 352°
2026-04-23 14:50 40.00676 117.09002 14374 ft 371 kts 352°
2026-04-23 14:50 40.04089 117.08378 15327 ft 376 kts 352°
2026-04-23 14:50 40.06693 117.07896 16012 ft 380 kts 352°
2026-04-23 14:50 40.09326 117.07410 16685 ft 384 kts 352°
2026-04-23 14:51 40.11982 117.06920 17328 ft 388 kts 352°
2026-04-23 14:51 40.13755 117.06593 17746 ft 390 kts 352°
2026-04-23 14:51 40.16456 117.06095 18363 ft 394 kts 352°
2026-04-23 14:51 40.19182 117.05592 18960 ft 397 kts 352°
2026-04-23 14:52 40.21930 117.05084 19548 ft 401 kts 352°
2026-04-23 14:52 40.24703 117.04571 20096 ft 404 kts 352°
2026-04-23 14:52 40.28415 117.03884 20838 ft 409 kts 352°
2026-04-23 14:52 40.30321 117.03531 21199 ft 411 kts 352°
2026-04-23 14:53 40.33169 117.03016 21712 ft 415 kts 354°
2026-04-23 14:53 40.36056 117.02682 22209 ft 418 kts 355°
2026-04-23 14:53 40.38927 117.02349 22729 ft 421 kts 354°
2026-04-23 14:53 40.41853 117.02002 23204 ft 424 kts 354°
2026-04-23 14:54 40.44804 117.01648 23680 ft 427 kts 354°
2026-04-23 14:54 40.47776 117.01290 24160 ft 430 kts 354°
2026-04-23 14:54 40.50769 117.00923 24602 ft 433 kts 353°
2026-04-23 14:54 40.53689 116.99967 25031 ft 435 kts 336°
2026-04-23 14:55 40.56322 116.98006 25457 ft 437 kts 326°
2026-04-23 14:55 40.58852 116.95764 25829 ft 441 kts 325°
2026-04-23 14:55 40.61358 116.93501 26191 ft 444 kts 325°
2026-04-23 14:55 40.63904 116.91170 26578 ft 447 kts 324°
2026-04-23 14:56 40.66454 116.88813 26994 ft 449 kts 324°
2026-04-23 14:56 40.69016 116.86435 27343 ft 452 kts 324°
2026-04-23 14:56 40.71603 116.84030 27656 ft 456 kts 324°
2026-04-23 14:56 40.74335 116.81906 28026 ft 458 kts 337°
2026-04-23 14:57 40.77402 116.80763 28369 ft 460 kts 353°
2026-04-23 14:57 40.80601 116.80618 28750 ft 462 kts
2026-04-23 14:57 40.83784 116.80693 29025 ft 465 kts
2026-04-23 14:57 40.87070 116.80814 29355 ft 468 kts
2026-04-23 14:58 40.90288 116.80959 29675 ft 470 kts
2026-04-23 14:58 40.93565 116.81122 29993 ft 472 kts
2026-04-23 14:58 40.96854 116.81292 30287 ft 475 kts
2026-04-23 14:58 41.00157 116.81464 30709 ft 474 kts
2026-04-23 14:59 41.03443 116.81635 31144 ft 473 kts
2026-04-23 14:59 41.06731 116.81806 31535 ft 472 kts
2026-04-23 14:59 41.10012 116.81978 31918 ft 472 kts
2026-04-23 14:59 41.13293 116.82149 32314 ft 471 kts
2026-04-23 15:00 41.16567 116.82321 32708 ft 470 kts
2026-04-23 15:00 41.19786 116.82490 33130 ft 469 kts
2026-04-23 15:00 41.23043 116.82660 33470 ft 469 kts
2026-04-23 15:00 41.26300 116.82832 33809 ft 469 kts
2026-04-23 15:01 41.29559 116.83003 34148 ft 468 kts
2026-04-23 15:01 41.32811 116.83174 34481 ft 468 kts
2026-04-23 15:01 41.36073 116.83346 34767 ft 469 kts
2026-04-23 15:01 41.39325 116.83517 35136 ft 467 kts
2026-04-23 15:02 41.42570 116.83688 35456 ft 466 kts
2026-04-23 15:02 41.45765 116.83857 35762 ft 466 kts
2026-04-23 15:02 41.48998 116.84028 36065 ft 465 kts
2026-04-23 15:02 41.52232 116.84199 36332 ft 465 kts
2026-04-23 15:03 41.55465 116.84371 36547 ft 465 kts
2026-04-23 15:03 41.58703 116.84542 36737 ft 467 kts
2026-04-23 15:03 41.61948 116.84715 36983 ft 466 kts
2026-04-23 15:03 41.65162 116.85263 37042 ft 466 kts 15°
2026-04-23 15:04 41.68142 116.86870 37057 ft 461 kts 31°
2026-04-23 15:04 41.70712 116.89440 37107 ft 463 kts 44°
2026-04-23 15:04 41.72726 116.92725 37075 ft 464 kts 59°
2026-04-23 15:04 41.74246 116.96539 37116 ft 465 kts 63°
2026-04-23 15:05 41.77099 117.04342 37112 ft 467 kts 64°
2026-04-23 15:05 41.79865 117.12228 37094 ft 467 kts 65°
2026-04-23 15:06 41.82602 117.20133 37096 ft 468 kts 65°
2026-04-23 15:06 41.85317 117.27998 37095 ft 467 kts 65°
2026-04-23 15:07 41.88041 117.35916 37100 ft 467 kts 65°
2026-04-23 15:07 41.90754 117.43824 37098 ft 466 kts 65°
2026-04-23 15:08 41.93458 117.51728 37099 ft 466 kts 65°
2026-04-23 15:09 41.97493 117.63564 37102 ft 467 kts 65°
2026-04-23 15:09 42.00187 117.71495 37101 ft 465 kts 65°
2026-04-23 15:10 42.02873 117.79424 37102 ft 467 kts 65°
2026-04-23 15:10 42.05560 117.87377 37101 ft 467 kts 65°
2026-04-23 15:11 42.08221 117.95279 37096 ft 467 kts 65°
2026-04-23 15:11 42.10896 118.03240 37100 ft 467 kts 65°
2026-04-23 15:12 42.13564 118.11204 37100 ft 466 kts 65°
2026-04-23 15:12 42.16230 118.19187 37100 ft 467 kts 65°
2026-04-23 15:13 42.18185 118.27441 37079 ft 462 kts 86°
2026-04-23 15:13 42.18436 118.36070 37087 ft 465 kts 88°
2026-04-23 15:14 42.18591 118.44807 37102 ft 466 kts 89°
2026-04-23 15:14 42.18703 118.53545 37099 ft 466 kts 89°
2026-04-23 15:15 42.18804 118.62274 37099 ft 465 kts 89°
2026-04-23 15:15 42.18898 118.70991 37098 ft 464 kts 89°
2026-04-23 15:16 42.18751 118.79615 37071 ft 463 kts 102°
2026-04-23 15:16 42.17751 118.83706 37098 ft 461 kts 116°
2026-04-23 15:16 42.16315 118.87581 37091 ft 463 kts 117°
2026-04-23 15:17 42.13339 118.95284 37112 ft 464 kts 118°
2026-04-23 15:17 42.10287 119.02941 37099 ft 464 kts 118°
2026-04-23 15:18 42.07232 119.10542 37098 ft 464 kts 118°
2026-04-23 15:18 42.04154 119.18177 37102 ft 464 kts 118°
2026-04-23 15:19 42.01077 119.25790 37094 ft 462 kts 118°
2026-04-23 15:19 41.98001 119.33379 37097 ft 462 kts 118°
2026-04-23 15:20 41.94920 119.40968 37096 ft 462 kts 118°
2026-04-23 15:20 41.91916 119.48551 37106 ft 463 kts 118°
2026-04-23 15:21 41.88881 119.56186 37101 ft 464 kts 118°
2026-04-23 15:21 41.85838 119.63820 37104 ft 464 kts 118°
2026-04-23 15:22 41.82788 119.71450 37104 ft 464 kts 118°
2026-04-23 15:22 41.79754 119.79021 37103 ft 464 kts 118°
2026-04-23 15:23 41.76695 119.86637 37102 ft 464 kts 118°
2026-04-23 15:23 41.73636 119.94232 37101 ft 463 kts 118°
2026-04-23 15:24 41.70576 120.01807 37099 ft 462 kts 118°
2026-04-23 15:24 41.67532 120.09326 37094 ft 464 kts 118°
2026-04-23 15:25 41.64455 120.16907 37098 ft 463 kts 118°
2026-04-23 15:25 41.61381 120.24459 37098 ft 463 kts 118°
2026-04-23 15:26 41.58303 120.32005 37097 ft 462 kts 118°
2026-04-23 15:26 41.55274 120.39486 37094 ft 461 kts 114°
2026-04-23 15:26 41.54262 120.43518 37082 ft 458 kts 99°
2026-04-23 15:27 41.54077 120.47749 37113 ft 458 kts 87°
2026-04-23 15:27 41.54403 120.56288 37104 ft 462 kts 86°
2026-04-23 15:28 41.54820 120.64843 37096 ft 461 kts 86°
2026-04-23 15:28 41.55261 120.73372 37097 ft 461 kts 86°
2026-04-23 15:29 41.55697 120.81851 37108 ft 461 kts 86°
2026-04-23 15:29 41.56130 120.90402 37101 ft 461 kts 86°
2026-04-23 15:30 41.56556 120.98944 37095 ft 461 kts 86°
2026-04-23 15:30 41.56976 121.07480 37106 ft 461 kts 86°
2026-04-23 15:31 41.57387 121.15948 37097 ft 460 kts 86°
2026-04-23 15:31 41.58042 121.24439 37109 ft 460 kts 84°
2026-04-23 15:32 41.58707 121.32937 37101 ft 460 kts 84°
2026-04-23 15:32 41.59360 121.41435 37097 ft 460 kts 84°
2026-04-23 15:33 41.60006 121.49933 37097 ft 460 kts 84°
2026-04-23 15:33 41.60643 121.58391 37103 ft 462 kts 84°
2026-04-23 15:34 41.61280 121.66928 37106 ft 462 kts 84°
2026-04-23 15:34 41.61909 121.75465 37103 ft 461 kts 84°
2026-04-23 15:35 41.62532 121.83983 37095 ft 460 kts 84°
2026-04-23 15:35 41.63142 121.92433 37101 ft 460 kts 84°
2026-04-23 15:36 41.63751 122.00935 37097 ft 459 kts 84°
2026-04-23 15:36 41.64350 122.09440 37103 ft 459 kts 86°
2026-04-23 15:36 41.64202 122.13685 37098 ft 457 kts 99°
2026-04-23 15:37 41.63726 122.17896 37094 ft 460 kts 98°
2026-04-23 15:37 41.62818 122.26348 37106 ft 460 kts 98°
2026-04-23 15:38 41.61861 122.34796 37100 ft 459 kts 98°
2026-04-23 15:38 41.60893 122.43238 37108 ft 459 kts 98°
2026-04-23 15:39 41.59919 122.51671 37097 ft 459 kts 99°
2026-04-23 15:39 41.58945 122.60049 37097 ft 459 kts 99°
2026-04-23 15:40 41.57958 122.68483 37098 ft 459 kts 99°
2026-04-23 15:40 41.56966 122.76908 37100 ft 459 kts 99°
2026-04-23 15:41 41.55967 122.85333 37103 ft 459 kts 99°
2026-04-23 15:41 41.54962 122.93763 37108 ft 460 kts 99°
2026-04-23 15:42 41.53950 123.02181 37101 ft 459 kts 99°
2026-04-23 15:42 41.52932 123.10610 37101 ft 460 kts 99°
2026-04-23 15:43 41.51909 123.19026 37105 ft 460 kts 99°
2026-04-23 15:43 41.50882 123.27440 37101 ft 459 kts 98°
2026-04-23 15:44 41.49945 123.35876 37097 ft 460 kts 98°
2026-04-23 15:44 41.49000 123.44316 37107 ft 460 kts 98°
2026-04-23 15:45 41.48048 123.52745 37101 ft 460 kts 98°
2026-04-23 15:45 41.47089 123.61186 37097 ft 460 kts 98°
2026-04-23 15:46 41.46122 123.69632 37098 ft 461 kts 98°
2026-04-23 15:46 41.45157 123.78013 37100 ft 461 kts 99°
2026-04-23 15:47 41.44177 123.86465 37101 ft 461 kts 99°
2026-04-23 15:47 41.43192 123.94904 37099 ft 461 kts 99°
2026-04-23 15:48 41.42174 124.03345 37104 ft 461 kts 103°
2026-04-23 15:48 41.41116 124.07349 37073 ft 459 kts 118°
2026-04-23 15:48 41.39319 124.10846 37101 ft 460 kts 133°
2026-04-23 15:48 41.36912 124.13643 37090 ft 461 kts 147°
2026-04-23 15:49 41.34081 124.15654 37105 ft 462 kts 160°
2026-04-23 15:49 41.30989 124.16727 37092 ft 458 kts 173°
2026-04-23 15:49 41.27821 124.17199 37104 ft 460 kts 174°
2026-04-23 15:50 41.21433 124.17916 37096 ft 460 kts 176°
2026-04-23 15:50 41.15033 124.18496 37100 ft 462 kts 176°
2026-04-23 15:51 41.08610 124.19041 37103 ft 462 kts 176°
2026-04-23 15:51 41.02202 124.19700 37104 ft 462 kts 175°
2026-04-23 15:52 40.95810 124.20436 37102 ft 461 kts 175°
2026-04-23 15:52 40.89428 124.21161 37105 ft 459 kts 175°
2026-04-23 15:53 40.83049 124.21885 37105 ft 460 kts 175°
2026-04-23 15:53 40.76665 124.22607 37103 ft 460 kts 175°
2026-04-23 15:54 40.70339 124.23321 37096 ft 459 kts 175°
2026-04-23 15:54 40.63984 124.24037 36449 ft 460 kts 175°
2026-04-23 15:54 40.60768 124.24399 35583 ft 463 kts 175°
2026-04-23 15:55 40.57574 124.24758 34970 ft 460 kts 175°
2026-04-23 15:55 40.54362 124.25119 33892 ft 468 kts 175°
2026-04-23 15:55 40.51132 124.25481 33305 ft 463 kts 175°
2026-04-23 15:55 40.47901 124.25843 32216 ft 470 kts 175°
2026-04-23 15:56 40.44633 124.26209 31457 ft 469 kts 175°
2026-04-23 15:56 40.41378 124.26573 30508 ft 471 kts 175°
2026-04-23 15:56 40.38081 124.26942 29445 ft 477 kts 175°
2026-04-23 15:56 40.34797 124.27373 28461 ft 476 kts 170°
2026-04-23 15:57 40.31610 124.28660 27393 ft 480 kts 155°
2026-04-23 15:57 40.28762 124.30910 26575 ft 477 kts 142°
2026-04-23 15:57 40.26359 124.33902 25625 ft 478 kts 130°
2026-04-23 15:57 40.24424 124.37416 24820 ft 475 kts 118°
2026-04-23 15:58 40.23157 124.41378 24050 ft 471 kts 109°
2026-04-23 15:58 40.22134 124.45428 23293 ft 467 kts 107°
2026-04-23 15:58 40.21158 124.49455 22584 ft 462 kts 111°
2026-04-23 15:58 40.19631 124.53124 21880 ft 457 kts 123°
2026-04-23 15:59 40.17917 124.56587 21171 ft 452 kts 123°
2026-04-23 15:59 40.16226 124.59994 20406 ft 451 kts 123°
2026-04-23 15:59 40.14522 124.63395 19833 ft 444 kts 123°
2026-04-23 15:59 40.12833 124.66754 18892 ft 445 kts 123°
2026-04-23 16:00 40.11133 124.70128 18200 ft 442 kts 123°
2026-04-23 16:00 40.09454 124.73456 17630 ft 435 kts 123°
2026-04-23 16:00 40.07802 124.76727 17075 ft 429 kts 123°
2026-04-23 16:00 40.06171 124.79953 16426 ft 423 kts 123°
2026-04-23 16:01 40.04529 124.83195 15494 ft 428 kts 123°
2026-04-23 16:01 40.02896 124.86418 14917 ft 422 kts 123°
2026-04-23 16:01 40.01287 124.89592 14352 ft 417 kts 123°
2026-04-23 16:01 39.99696 124.92725 13797 ft 411 kts 123°
2026-04-23 16:02 39.98127 124.95813 13300 ft 405 kts 123°
2026-04-23 16:02 39.96581 124.98852 12827 ft 399 kts 123°
2026-04-23 16:02 39.95057 125.01845 12385 ft 393 kts 123°
2026-04-23 16:02 39.93554 125.04794 11993 ft 386 kts 124°
2026-04-23 16:03 39.92086 125.07672 11696 ft 377 kts 124°
2026-04-23 16:03 39.90651 125.10483 11442 ft 368 kts 124°
2026-04-23 16:03 39.89252 125.13219 11217 ft 358 kts 124°
2026-04-23 16:03 39.87888 125.15886 10921 ft 351 kts 124°
2026-04-23 16:04 39.86533 125.18534 10473 ft 350 kts 124°
2026-04-23 16:04 39.85188 125.21158 10035 ft 348 kts 124°
2026-04-23 16:04 39.83852 125.23765 9606 ft 345 kts 124°
2026-04-23 16:04 39.82520 125.26359 9187 ft 343 kts 124°
2026-04-23 16:05 39.81643 125.28067 8889 ft 342 kts 124°
2026-04-23 16:05 39.79881 125.31495 8332 ft 339 kts 124°
2026-04-23 16:05 39.78576 125.34034 7981 ft 336 kts 124°
2026-04-23 16:05 39.77290 125.36532 7918 ft 327 kts 124°
2026-04-23 16:06 39.76053 125.38933 7921 ft 312 kts 124°
2026-04-23 16:06 39.74873 125.41224 7920 ft 298 kts 124°
2026-04-23 16:06 39.73707 125.43381 7854 ft 286 kts 132°
2026-04-23 16:06 39.72126 125.44861 7606 ft 280 kts 158°
2026-04-23 16:07 39.70312 125.45729 7341 ft 276 kts 160°
2026-04-23 16:07 39.68520 125.46573 7070 ft 273 kts 160°
2026-04-23 16:07 39.66739 125.47399 6823 ft 270 kts 161°
2026-04-23 16:07 39.64980 125.48208 6573 ft 267 kts 161°
2026-04-23 16:08 39.63241 125.49002 6329 ft 263 kts 161°
2026-04-23 16:08 39.61549 125.49774 6088 ft 260 kts 161°
2026-04-23 16:08 39.59855 125.50546 5868 ft 256 kts 161°
2026-04-23 16:08 39.58186 125.51304 5627 ft 253 kts 161°
2026-04-23 16:09 39.56538 125.52052 5388 ft 249 kts 161°
2026-04-23 16:09 39.54915 125.52788 5180 ft 245 kts 161°
2026-04-23 16:09 39.53317 125.53513 4958 ft 242 kts 161°
2026-04-23 16:09 39.51735 125.54227 4725 ft 240 kts 161°
2026-04-23 16:10 39.50687 125.54736 4572 ft 237 kts 158°
2026-04-23 16:10 39.49183 125.55533 4422 ft 227 kts 159°
2026-04-23 16:10 39.47737 125.56203 4268 ft 215 kts 162°
2026-04-23 16:10 39.46333 125.56797 4032 ft 209 kts 162°
2026-04-23 16:11 39.44964 125.57349 3805 ft 203 kts 163°
2026-04-23 16:11 39.43638 125.57881 3612 ft 195 kts 163°
2026-04-23 16:11 39.42376 125.58379 3387 ft 191 kts 163°
2026-04-23 16:11 39.41102 125.58890 3065 ft 192 kts 163°
2026-04-23 16:12 39.39826 125.59406 2730 ft 193 kts 164°
2026-04-23 16:12 39.38536 125.59903 2395 ft 190 kts 162°
2026-04-23 16:12 39.37335 125.60381 2416 ft 175 kts 163°
2026-04-23 16:12 39.36180 125.60844 2390 ft 173 kts 163°
2026-04-23 16:13 39.35028 125.61293 2414 ft 174 kts 163°
2026-04-23 16:13 39.32751 125.62206 2218 ft 160 kts 163°
2026-04-23 16:13 39.31719 125.62612 2091 ft 152 kts 164°
2026-04-23 16:14 39.30725 125.63007 1893 ft 147 kts 163°
2026-04-23 16:14 39.29751 125.63394 1698 ft 146 kts 164°
2026-04-23 16:14 39.28783 125.63779 1489 ft 145 kts 163°
2026-04-23 16:14 39.27817 125.64159 1316 ft 145 kts 163°
2026-04-23 16:15 39.26854 125.64540 1103 ft 144 kts 163°
2026-04-23 16:15 39.25894 125.64920 915 ft 144 kts 163°
2026-04-23 16:15 39.24936 125.65299 728 ft 144 kts 163°
2026-04-23 16:15 39.23982 125.65677 535 ft 143 kts 163°
2026-04-23 16:16 39.23030 125.66052 351 ft 143 kts 163°
2026-04-23 16:16 39.22082 125.66427 163 ft 142 kts 163°
2026-04-23 16:16 39.21190 125.66776 109 ft 122 kts 163°
2026-04-23 16:16 39.20476 125.67059 105 ft 77 kts 163°
2026-04-23 16:17 39.20190 125.67173 106 ft 38 kts 162°
2026-04-23 16:17 39.19930 125.67292 105 ft 21 kts 166°
2026-04-23 16:17 39.19819 125.67339 104 ft 11 kts 127°
2026-04-23 16:17 39.19836 125.67397 104 ft 7 kts 28°
2026-04-23 16:18 39.19883 125.67430 104 ft 9 kts 29°
2026-04-23 16:18 39.19943 125.67475 103 ft 11 kts 30°
2026-04-23 16:18 39.19994 125.67554 104 ft 12 kts 71°
2026-04-23 16:18 39.19995 125.67561 103 ft 0 kts 73°